Location: Chantarel
(45.1638°N, 1.7873°E)
Time: 17:18:07
(UTC+00:00)

Lacrosse 4 Rocket - Pass Details

Date: 03 March 2021
Orbit: 537 x 620 km, 68.0° (Epoch: 11 April)

Event Time Altitude Azimuth Distance (km) Brightness Sun altitude
Rises 20:47:53 0° 233° (SW) 2,829 5.3 -32.5°
Reaches altitude 10° 20:50:15 10° 242° (WSW) 1,944 4.5 -32.9°
Enters shadow 20:51:02 14° 248° (WSW) 1,675 4.1 -33.0°
